EW8862 Weather Reports


time (UTC)temp
F
wind
direction
speed
knots
gust
knots
rain 1hr
in
rain 24hr
in
rain mn
in
humidity
%
barometer
mb
20260508004524 45 220 0.0 0.0 0.00 0.00 0.00 86 1016.6
20260508003019 45 220 0.0 0.0 0.00 0.00 0.00 85 1016.6
20260508001526 46 220 0.0 0.9 0.00 0.00 0.00 86 1016.6
20260508000011 45 220 0.0 0.0 0.00 0.00 0.00 86 1016.7
20260507234520 45 220 0.0 0.0 0.00 0.00 0.00 85 1016.9
20260507233028 46 220 0.0 0.0 0.00 0.00 0.00 84 1017.0
20260507231534 46 220 0.0 0.0 0.00 0.00 0.00 82 1016.9
20260507230026 46 220 0.0 0.0 0.00 0.00 0.00 79 1017.0
20260507224512 48 220 0.0 0.0 0.00 0.00 0.00 77 1017.0
20260507223022 49 220 0.0 0.0 0.00 0.00 0.00 76 1016.9
20260507221518 50 220 0.0 0.0 0.00 0.00 0.00 76 1016.7
20260507220026 50 221 0.0 0.0 0.00 0.00 0.00 75 1016.8
20260507214529 51 221 0.0 0.0 0.00 0.00 0.00 75 1017.0
20260507213022 51 221 0.0 0.0 0.00 0.00 0.00 74 1017.0
20260507211516 51 221 0.0 0.0 0.00 0.00 0.00 70 1017.0
20260507210023 52 221 0.0 0.0 0.00 0.00 0.00 69 1016.8
20260507204525 53 221 0.0 0.0 0.00 0.00 0.00 69 1016.7
20260507203028 54 221 0.0 0.0 0.00 0.00 0.00 67 1016.6
20260507201517 54 221 0.0 0.0 0.00 0.00 0.00 66 1016.4
20260507200029 55 221 0.0 0.0 0.00 0.00 0.00 65 1016.2
20260507194524 56 221 0.0 0.9 0.00 0.00 0.00 64 1015.9
20260507193032 56 221 0.0 0.9 0.00 0.00 0.00 64 1015.9
20260507191529 56 236 0.0 0.9 0.00 0.00 0.00 63 1015.8
20260507190016 57 225 0.0 0.9 0.00 0.00 0.00 61 1015.6
20260507184519 57 213 0.9 1.7 0.00 0.00 0.00 61 1015.6
20260507183034 58 271 0.9 1.7 0.00 0.00 0.00 59 1015.6
20260507181527 58 255 0.0 3.5 0.00 0.00 0.00 59 1015.5
20260507180037 58 217 0.9 3.5 0.00 0.00 0.00 58 1015.3
20260507174518 59 226 0.9 1.7 0.00 0.00 0.00 54 1015.2
20260507173020 59 108 0.0 0.9 0.00 0.00 0.00 53 1015.3
20260507171525 60 255 0.0 1.7 0.00 0.00 0.00 55 1015.3
20260507170027 60 239 0.0 1.7 0.00 0.00 0.00 53 1015.3
20260507164528 60 186 0.0 1.7 0.00 0.00 0.00 54 1015.4
20260507163019 60 204 0.9 2.6 0.00 0.00 0.00 55 1015.4
20260507161504 61 212 0.9 2.6 0.00 0.00 0.00 53 1015.3
20260507160006 61 225 0.0 1.7 0.00 0.00 0.00 42 1015.3
20260507154512 61 77 0.0 1.7 0.00 0.00 0.00 43 1015.3
20260507153016 62 97 0.0 2.6 0.00 0.00 0.00 41 1015.4
20260507151535 62 43 0.0 0.9 0.00 0.00 0.00 38 1015.4
20260507150005 62 76 0.0 1.7 0.00 0.00 0.00 39 1015.4
20260507144509 62 43 0.0 1.7 0.00 0.00 0.00 39 1015.4
20260507143010 62 36 0.9 2.6 0.00 0.00 0.00 39 1015.5
20260507141518 62 227 0.0 1.7 0.00 0.00 0.00 40 1015.6
20260507140022 61 280 0.9 3.5 0.00 0.00 0.00 39 1015.7
20260507134516 62 37 0.9 1.7 0.00 0.00 0.00 38 1015.8
20260507133010 62 271 0.0 2.6 0.00 0.00 0.00 41 1015.9
20260507131524 62 280 0.0 2.6 0.00 0.00 0.00 38 1016.0
20260507130020 61 212 0.9 2.6 0.00 0.00 0.00 38 1015.9
20260507124524 61 245 0.9 1.7 0.00 0.00 0.00 38 1016.0
20260507123016 61 229 0.0 2.6 0.00 0.00 0.00 40 1016.0
20260507121511 61 335 0.0 2.6 0.00 0.00 0.00 40 1016.1
20260507120014 61 117 0.0 1.7 0.00 0.00 0.00 40 1016.1
20260507114526 58 32 0.9 3.5 0.00 0.00 0.00 45 1016.2
20260507113026 59 65 0.9 1.7 0.00 0.00 0.00 44 1016.3
20260507111516 59 191 0.9 3.5 0.00 0.00 0.00 45 1016.3
20260507110013 58 54 0.9 3.5 0.00 0.00 0.00 48 1016.4
20260507104517 57 64 0.0 2.6 0.00 0.00 0.00 50 1016.5
20260507103026 57 40 0.0 2.6 0.00 0.00 0.00 51 1016.5
20260507101524 57 34 0.9 2.6 0.00 0.00 0.00 53 1016.6
20260507100008 56 243 0.0 0.9 0.00 0.00 0.00 56 1016.8
20260507094513 55 87 0.9 1.7 0.00 0.00 0.00 55 1016.7
20260507093017 55 246 0.9 3.5 0.00 0.00 0.00 58 1016.6
20260507091524 54 266 0.9 2.6 0.00 0.00 0.00 65 1016.7
20260507090035 53 28 0.9 2.6 0.00 0.00 0.00 73 1016.7
20260507084517 52 55 0.9 1.7 0.00 0.00 0.00 77 1016.8
20260507083016 51 357 0.0 1.7 0.00 0.00 0.00 80 1016.8
20260507081522 50 273 0.0 2.6 0.00 0.00 0.00 82 1016.8
20260507080028 49 320 0.9 1.7 0.00 0.00 0.00 84 1016.8
20260507074538 49 42 0.9 2.6 0.00 0.00 0.00 85 1016.7
20260507073012 48 25 0.0 1.7 0.00 0.00 0.00 87 1016.7
20260507071514 46 75 0.9 1.7 0.00 0.00 0.00 89 1016.6
20260507070024 44 30 0.0 0.9 0.00 0.00 0.00 90 1016.7
20260507064525 43 30 0.0 1.7 0.00 0.00 0.00 91 1016.7
20260507063034 43 30 0.0 0.9 0.00 0.00 0.00 92 1016.6
20260507061514 42 30 0.0 0.9 0.00 0.00 0.00 93 1016.6
20260507060020 41 30 0.0 0.9 0.00 0.00 0.00 93 1016.6
20260507054525 39 30 0.0 0.0 0.00 0.00 0.00 94 1016.5
20260507053026 38 30 0.0 0.0 0.00 0.00 0.00 93 1016.3
20260507051514 37 30 0.0 0.0 0.00 0.00 0.00 92 1016.2
20260507050018 37 30 0.0 0.0 0.00 0.00 0.00 91 1016.2
20260507044525 37 30 0.0 0.0 0.00 0.00 0.00 92 1016.1
20260507043026 37 30 0.0 0.0 0.00 0.00 0.00 91 1016.0
20260507041511 37 30 0.0 0.0 0.00 0.00 0.00 91 1016.1
20260507040016 37 30 0.0 0.0 0.00 0.00 0.00 90 1016.1
20260507034534 38 30 0.0 0.0 0.00 0.00 0.00 91 1016.0
20260507033024 38 30 0.0 0.0 0.00 0.00 0.00 90 1016.0
20260507031527 38 30 0.0 0.0 0.00 0.00 0.00 90 1016.0
20260507030015 39 30 0.0 0.0 0.00 0.00 0.00 90 1016.0
20260507024530 40 30 0.0 0.0 0.00 0.00 0.00 90 1015.9
20260507023022 40 30 0.0 0.0 0.00 0.00 0.00 90 1015.9
20260507021526 40 30 0.0 0.9 0.00 0.00 0.00 90 1016.0
20260507020030 41 52 0.0 0.0 0.00 0.00 0.00 89 1015.9
20260507014524 41 53 0.0 0.9 0.00 0.00 0.00 89 1015.8
20260507013016 41 52 0.0 0.9 0.00 0.00 0.00 89 1015.9
20260507011535 42 52 0.0 0.9 0.00 0.00 0.00 88 1015.9
20260507010026 42 52 0.0 0.9 0.00 0.00 0.00 89 1015.9